[[{"header":{"parameterUnit":"m.s-1","parameterCategory":1,"la1":30.2991,"la2":30.254,"lo1":-89.0895,"lo2":-89.0444,"dy":0.0017,"dx":0.0017,"nx":28,"ny":28,"refTime":"2023-10-02T03:00:00:Z","depth":0,"parameterNumber":2,"parameterNumberName":"U-component_of_WINDS"},"data":[0,0,0,0,0,0,0,0,0,0,0,0,0,0,0,0,0,0,0,0,0,0,0,0,0,0,0,0,0,0,0,0,0,0,0,0,0,0,0,0,0,0,0,0,0,0,0,0,0,0,0,0,0,0,0,0,0,0,-4.2976,-4.2976,0,-4.2982,-4.2982,-4.2983,-4.2848,-4.2844,-4.284,-4.2837,-4.2843,-4.2846,-4.285,0,0,0,0,0,0,0,0,0,0,0,0,0,-4.2844,-4.2848,-4.2976,-4.2976,-4.2976,-4.2982,-4.2982,-4.2983,-4.2848,-4.2844,-4.284,-4.2835,-4.2842,-4.2846,-4.285,0,0,0,0,0,0,0,0,0,0,0,0,0,-4.2882,-4.2849,-4.2976,-4.291,-4.2904,-4.2982,-4.2982,-4.2983,-4.2849,-4.2844,-4.2838,-4.2833,-4.284,-4.2845,-4.2851,-4.2992,0,0,-4.2867,-4.2869,0,0,0,0,0,0,0,0,-4.288,-4.2886,-4.2919,-4.2914,-4.2908,-4.2909,-4.2938,-4.2986,-4.2851,-4.287,-4.2837,-4.2831,-4.2869,-4.2872,-4.2885,-4.2993,-4.2993,-4.2867,-4.2871,-4.2873,-4.2874,0,0,0,0,0,0,0,-4.2877,-4.2885,-4.2978,-4.292,-4.2913,-4.2879,-4.2878,-4.2947,-4.29,-4.2868,-4.2858,-4.2861,-4.2865,-4.288,-4.2884,-4.2993,-4.2867,-4.2872,-4.2875,-4.2877,-4.3216,-4.3221,0,0,0,0,0,0,-4.2884,-4.2884,-4.2978,-4.2978,-4.288,-4.2886,-4.2885,-4.2914,-4.2899,-4.2891,-4.2865,-4.2855,-4.2874,-4.2878,-4.2884,-4.3047,-4.2873,-4.2878,-4.2881,-4.321,-4.3217,-4.3224,0,0,0,0,0,0,-4.2882,-4.2893,-4.2978,-4.2929,-4.2937,-4.2894,-4.2927,-4.2917,-4.2932,-4.2897,-4.2888,-4.289,-4.287,-4.2876,-4.2966,-4.3045,-4.288,-4.2885,-4.3203,-4.3212,-4.322,-4.3376,0,0,0,0,0,0,-4.2878,-4.2893,-4.2947,-4.2931,-4.294,-4.3061,-4.2932,-4.2921,-4.2941,-4.2927,-4.2917,-4.291,-4.2866,-4.2959,-4.2971,-4.305,-4.2889,-4.3196,-4.3207,-4.3218,-4.3364,-4.3389,-4.3411,0,0,0,0,0,-4.2874,-4.2991,-4.2951,-4.2963,-4.3006,-4.3066,-4.3071,-4.3018,-4.2949,-4.3002,-4.2979,-4.2911,-4.3036,-4.2969,-4.2982,-4.3063,-4.3191,-4.3204,-4.3217,-4.3353,-4.3384,-4.3411,0,0,0,0,0,0,-4.3017,-4.2988,-4.2943,-4.3058,-4.3065,-4.3043,-4.3108,-4.3052,-4.3079,-4.3065,-4.2997,-4.2996,-4.3097,-4.3089,-4.3016,-4.3199,-4.3101,-4.3117,-4.32,-4.3229,-4.3253,-4.3251,-4.2894,0,0,0,0,0,-4.3063,-4.3114,-4.3085,-4.3189,-4.3195,-4.3152,-4.3176,-4.3134,-4.3139,-4.3141,-4.3125,-4.3133,-4.3173,-4.3201,-4.3236,-4.3363,-4.3358,-4.3425,-4.3449,-4.3468,-4.3483,-4.3548,-4.3577,-4.3266,-4.3266,-4.3266,0,0,-4.3156,-4.3146,-4.3182,-4.3218,-4.3218,-4.3272,-4.3155,-4.3217,-4.3256,-4.315,-4.3234,-4.3223,-4.3226,-4.3335,-4.3382,-4.3332,-4.3568,-4.3485,-4.3501,-4.3504,-4.3564,-4.3594,-4.362,-4.3275,-4.3274,-4.3272,0,0,-4.3353,-4.3352,-4.3437,-4.3441,-4.3444,-4.3414,-4.3435,-4.3422,-4.341,-4.3493,-4.3415,-4.346,-4.3532,-4.3537,-4.3549,-4.3749,-4.3686,-4.3763,-4.3885,-4.3949,-4.3974,-4.3995,-4.4065,-4.4091,-4.3777,-4.3778,-4.3778,0,-4.3468,-4.3547,-4.3489,-4.3556,-4.3573,-4.3481,-4.3567,-4.3573,-4.3588,-4.3602,-4.3545,-4.3633,-4.3629,-4.3736,-4.3785,-4.3799,-4.382,-4.3762,-4.3975,-4.3996,-4.4015,-4.4081,-4.4107,-4.3787,-4.3786,-4.3785,-4.3784,0,-4.3687,-4.3743,-4.3812,-4.3829,-4.3854,-4.3931,-4.3884,-4.3916,-4.3873,-4.3849,-4.3934,-4.3926,-4.3958,-4.3981,-4.3939,-4.4083,-4.4052,-4.3987,-4.3886,-4.4055,-4.4115,-4.414,-4.38,-4.3797,-4.3794,-4.3792,0,0,-4.3974,-4.3958,-4.3984,-4.399,-4.3987,-4.4028,-4.4101,-4.4132,-4.416,-4.4174,-4.4232,-4.4295,-4.4234,-4.4248,-4.4207,-4.4263,-4.442,-4.4191,-4.419,-4.4232,-4.4577,-4.4625,-4.4655,-4.438,-4.4384,-4.4388,-4.4576,0,-4.4164,-4.4286,-4.4236,-4.4363,-4.4412,-4.4326,-4.4388,-4.4393,-4.4373,-4.4412,-4.4389,-4.4435,-4.4352,-4.436,-4.4412,-4.439,-4.4488,-4.4376,-4.4432,-4.4435,-4.4432,-4.4687,-4.4738,-4.4915,-4.46,-4.4604,-4.4606,0,-4.4402,-4.4425,-4.4557,-4.4544,-4.4563,-4.4621,-4.4645,-4.4684,-4.4687,-4.4668,-4.4685,-4.463,-4.4699,-4.4601,-4.4694,-4.4619,-4.4639,-4.4632,-4.4637,-4.4639,-4.453,-4.4694,-4.4971,-4.4997,-4.4644,-4.4641,-4.4638,0,-4.4596,-4.466,-4.4747,-4.4755,-4.4743,-4.4785,-4.4782,-4.478,-4.4801,-4.4823,-4.4836,-4.4866,-4.4882,-4.4906,-4.486,-4.4793,-4.496,-4.4858,-4.4945,-4.4947,-4.4983,-4.4981,-4.5266,-4.4999,-4.4999,-4.4998,-4.4998,0,-4.4812,-4.4896,-4.4833,-4.4887,-4.4977,-4.4919,-4.501,-4.4998,-4.4997,-4.5045,-4.4973,-4.502,-4.4958,-4.4999,-4.4964,-4.5046,-4.5055,-4.5041,-4.503,-4.5046,-4.5048,-4.5057,-4.5043,-4.5005,-4.5004,-4.5003,-4.5001,0,-4.5043,-4.5005,-4.5093,-4.5075,-4.5072,-4.514,-4.5123,-4.5171,-4.5147,-4.5209,-4.522,-4.5181,-4.5226,-4.5184,-4.5226,-4.5202,-4.5312,-4.5284,-4.5311,-4.5303,-4.5392,-4.5384,-4.5691,-4.5728,-4.544,-4.5443,-4.5445,0,-4.5183,-4.5245,-4.5234,-4.5261,-4.5262,-4.5308,-4.533,-4.5275,-4.5301,-4.5309,-4.5356,-4.5395,-4.5422,-4.5498,-4.5473,-4.5505,-4.5476,-4.5582,-4.548,-4.5495,-4.5476,-4.5472,-4.5478,-4.5602,-4.5605,-4.5608,-4.561,0,-4.5435,-4.5413,-4.5448,-4.5476,-4.5504,-4.5524,-4.5538,-4.5564,-4.5508,-4.5541,-4.5585,-4.5607,-4.565,-4.5689,-4.5713,-4.5709,-4.5651,-4.5643,-4.5664,-4.5681,-4.5693,-4.5686,-4.5365,-4.5636,-4.5633,-4.5631,-4.563,-4.5629,-4.5624,-4.5674,-4.5674,-4.5715,-4.5719,-4.5734,-4.5778,-4.5759,-4.5795,-4.5826,-4.5791,-4.5846,-4.5847,-4.5874,-4.5877,-4.5918,-4.5874,-4.5906,-4.5913,-4.5922,-4.5934,-4.5688,-4.5923,-4.5922,-4.5921,-4.5921,-4.592,0,-4.587,-4.5866,-4.5904,-4.5926,-4.5958,-4.5901,-4.5913,-4.5943,-4.5992,-4.5998,-4.6027,-4.6078,-4.6116,-4.6094,-4.6126,-4.6164,-4.6138,-4.6174,-4.617,-4.6169,-4.5973,-4.595,-4.6194,-4.6194,-4.6194,-4.6194,-4.6194,-4.6194,-4.6002,-4.6085,-4.6063,-4.6147,-4.6141,-4.6194,-4.6206,-4.6219,-4.6223,-4.6284,-4.6315,-4.63,-4.6295,-4.6326,-4.6358,-4.635,-4.6365,-4.6411,-4.6394,-4.621,-4.6183,-4.6158,-4.6136,-4.6415,-4.6415,-4.6586,-4.6588,-4.6589]},{"header":{"parameterUnit":"m.s-1","parameterCategory":1,"la1":30.2991,"la2":30.254,"lo1":-89.0895,"lo2":-89.0444,"dy":0.0017,"dx":0.0017,"nx":28,"ny":28,"refTime":"2023-10-02T03:00:00:Z","depth":0,"parameterNumber":3,"parameterNumberName":"V-component_of_WINDS"},"data":[0,0,0,0,0,0,0,0,0,0,0,0,0,0,0,0,0,0,0,0,0,0,0,0,0,0,0,0,0,0,0,0,0,0,0,0,0,0,0,0,0,0,0,0,0,0,0,0,0,0,0,0,0,0,0,0,0,0,1.481,1.481,0,1.4872,1.4873,1.4874,1.4883,1.4882,1.4882,1.4881,1.4942,1.4944,1.4946,0,0,0,0,0,0,0,0,0,0,0,0,0,1.4695,1.4697,1.481,1.481,1.4811,1.4872,1.4873,1.4874,1.4883,1.4882,1.4881,1.4881,1.4941,1.4944,1.4946,0,0,0,0,0,0,0,0,0,0,0,0,0,1.475,1.4697,1.4809,1.4823,1.4825,1.4872,1.4873,1.4874,1.4883,1.4882,1.4881,1.488,1.494,1.4943,1.4946,1.4984,0,0,1.4956,1.4958,0,0,0,0,0,0,0,0,1.4746,1.4754,1.482,1.4822,1.4824,1.4869,1.4855,1.4911,1.4883,1.4861,1.4881,1.488,1.4918,1.4923,1.4936,1.4986,1.4989,1.4957,1.4959,1.496,1.4961,0,0,0,0,0,0,0,1.4743,1.4751,1.4834,1.4821,1.4824,1.4825,1.4832,1.4866,1.4893,1.4863,1.4863,1.4871,1.4919,1.4933,1.4938,1.499,1.4956,1.4959,1.4961,1.4963,1.5074,1.5075,0,0,0,0,0,0,1.4737,1.4748,1.4832,1.4836,1.4783,1.4828,1.4836,1.4855,1.4893,1.4898,1.4872,1.4871,1.4928,1.4934,1.494,1.4986,1.496,1.4963,1.4965,1.5073,1.5074,1.5075,0,0,0,0,0,0,1.4734,1.4744,1.483,1.4792,1.4803,1.4831,1.4853,1.4857,1.4872,1.49,1.4904,1.4882,1.4928,1.4936,1.4973,1.4988,1.4964,1.4967,1.5071,1.5073,1.5074,1.5078,0,0,0,0,0,0,1.4731,1.4743,1.4758,1.4793,1.4805,1.4862,1.4854,1.4859,1.4878,1.4878,1.491,1.4915,1.4928,1.4968,1.4976,1.4992,1.497,1.507,1.5072,1.5074,1.5077,1.508,1.5082,0,0,0,0,0,1.4727,1.4756,1.4759,1.4769,1.4825,1.4863,1.487,1.4886,1.4879,1.4894,1.4912,1.4914,1.4986,1.4972,1.4981,1.4998,1.5069,1.5072,1.5074,1.5076,1.5079,1.5082,0,0,0,0,0,0,1.4721,1.4761,1.4764,1.4806,1.4831,1.4865,1.4884,1.4889,1.4916,1.4915,1.4931,1.4939,1.4975,1.4991,1.4975,1.5036,1.5027,1.5031,1.5025,1.5028,1.5031,1.5026,1.4972,0,0,0,0,0,1.4725,1.4754,1.4786,1.482,1.4832,1.4856,1.4873,1.4883,1.491,1.492,1.4941,1.4966,1.4994,1.5012,1.504,1.5079,1.5086,1.5096,1.5099,1.5101,1.5104,1.5126,1.513,1.5083,1.5083,1.5082,0,0,1.4732,1.4757,1.4774,1.4819,1.484,1.4869,1.4865,1.4895,1.4917,1.4924,1.4961,1.4978,1.5007,1.5045,1.5064,1.5059,1.5119,1.5104,1.5105,1.5107,1.5129,1.5133,1.5137,1.5084,1.5084,1.5084,0,0,1.476,1.4783,1.4813,1.4835,1.4867,1.4883,1.489,1.4923,1.4935,1.4973,1.4979,1.5004,1.5053,1.5073,1.509,1.5128,1.513,1.5136,1.5149,1.5171,1.5174,1.5178,1.5191,1.5195,1.5139,1.5139,1.5139,0,1.4765,1.481,1.4827,1.4858,1.4878,1.4888,1.4918,1.4938,1.4977,1.499,1.4985,1.5046,1.5067,1.511,1.512,1.5133,1.5141,1.5132,1.5173,1.5176,1.518,1.5192,1.5197,1.514,1.514,1.514,1.5139,0,1.4814,1.4845,1.4865,1.4905,1.4926,1.4956,1.4978,1.4998,1.5006,1.5022,1.506,1.5085,1.5118,1.513,1.5137,1.5175,1.5171,1.517,1.516,1.5184,1.5196,1.5201,1.514,1.514,1.514,1.514,0,0,1.4838,1.4889,1.4896,1.4914,1.4951,1.4975,1.5006,1.5039,1.5056,1.5083,1.5108,1.515,1.5149,1.5168,1.5178,1.5197,1.5225,1.5193,1.5194,1.5198,1.5268,1.5268,1.5273,1.5228,1.5229,1.523,1.5265,0,1.4871,1.4927,1.4944,1.4991,1.502,1.5031,1.5058,1.5083,1.5099,1.5125,1.5142,1.5171,1.5168,1.518,1.5199,1.5218,1.5239,1.5215,1.5251,1.5252,1.5242,1.528,1.528,1.5312,1.527,1.5271,1.5271,0,1.4915,1.4945,1.4995,1.5029,1.5042,1.5066,1.5098,1.5123,1.5152,1.5163,1.5185,1.5194,1.5226,1.5216,1.5259,1.5243,1.5259,1.527,1.5272,1.5275,1.5262,1.5283,1.5323,1.5327,1.5279,1.5278,1.5278,0,1.4928,1.498,1.5017,1.5032,1.5073,1.509,1.5107,1.5136,1.5155,1.5183,1.5196,1.5227,1.5244,1.5267,1.5284,1.5275,1.5327,1.5318,1.5335,1.5335,1.5345,1.5344,1.5387,1.5356,1.5356,1.5356,1.5356,0,1.4961,1.4991,1.5023,1.5045,1.5079,1.5099,1.5132,1.515,1.5175,1.5201,1.5212,1.5236,1.5257,1.5284,1.5297,1.5331,1.5339,1.5348,1.5351,1.5346,1.5345,1.5356,1.5354,1.5357,1.5357,1.5357,1.5357,0,1.498,1.5003,1.5044,1.508,1.509,1.5113,1.5144,1.5166,1.5183,1.5215,1.5224,1.525,1.5282,1.5302,1.5342,1.5351,1.5388,1.5391,1.5379,1.538,1.5397,1.5394,1.5447,1.5455,1.542,1.542,1.5421,0,1.5,1.5023,1.5063,1.5081,1.51,1.5129,1.515,1.517,1.5191,1.5226,1.5244,1.5277,1.5304,1.5354,1.5376,1.5407,1.541,1.5426,1.5414,1.5409,1.5409,1.5407,1.541,1.5428,1.5428,1.5428,1.5428,0,1.5032,1.5042,1.5072,1.5105,1.513,1.5157,1.5184,1.5198,1.5223,1.5245,1.5279,1.53,1.5342,1.5374,1.5407,1.5424,1.543,1.5432,1.5438,1.5433,1.5425,1.5429,1.5384,1.5431,1.543,1.543,1.543,1.543,1.5051,1.5073,1.5104,1.5137,1.516,1.5185,1.5208,1.5228,1.5257,1.5293,1.5304,1.5338,1.5367,1.5412,1.543,1.5457,1.5455,1.5463,1.5465,1.5466,1.5466,1.5422,1.5463,1.5463,1.5463,1.5463,1.5463,0,1.5084,1.5105,1.5135,1.5173,1.5198,1.5204,1.5234,1.5255,1.5286,1.5313,1.534,1.5378,1.541,1.5435,1.5468,1.5484,1.5488,1.5492,1.549,1.5494,1.5467,1.5459,1.5488,1.5488,1.5488,1.5488,1.5488,1.5488,1.5103,1.514,1.5154,1.5203,1.5224,1.5259,1.5275,1.5299,1.532,1.5363,1.539,1.5407,1.5433,1.5468,1.5497,1.5504,1.5515,1.5518,1.5525,1.5499,1.5496,1.5493,1.5486,1.552,1.5521,1.555,1.555,1.555]}]]